Year,Month,Day,Hour,Minute,Value (Times are PST for temperature in C)
2013,07,20,00,00,19.70
2013,07,20,00,01,19.70
2013,07,20,00,02,19.70
2013,07,20,00,03,19.70
2013,07,20,00,04,19.70
2013,07,20,00,05,19.70
2013,07,20,00,06,19.60
2013,07,20,00,07,19.60
2013,07,20,00,08,19.60
2013,07,20,00,09,19.60
2013,07,20,00,10,19.60
2013,07,20,00,11,19.60
2013,07,20,00,12,19.60
2013,07,20,00,13,19.60
2013,07,20,00,14,19.60
2013,07,20,00,15,19.60
2013,07,20,00,16,19.60
2013,07,20,00,17,19.50
2013,07,20,00,18,19.50
2013,07,20,00,19,19.50
2013,07,20,00,20,19.50
2013,07,20,00,21,19.50
2013,07,20,00,22,19.50
2013,07,20,00,23,19.50
2013,07,20,00,24,19.50
2013,07,20,00,25,19.50
2013,07,20,00,26,19.50
2013,07,20,00,27,19.50
2013,07,20,00,28,19.50
2013,07,20,00,29,19.50
2013,07,20,00,30,19.50
2013,07,20,00,31,19.50
2013,07,20,00,32,19.50
2013,07,20,00,33,19.50
2013,07,20,00,34,19.50
2013,07,20,00,35,19.40
2013,07,20,00,36,19.40
2013,07,20,00,37,19.40
2013,07,20,00,38,19.40
2013,07,20,00,39,19.40
2013,07,20,00,40,19.40
2013,07,20,00,41,19.30
2013,07,20,00,42,19.30
2013,07,20,00,43,19.30
2013,07,20,00,44,19.30
2013,07,20,00,45,19.30
2013,07,20,00,46,19.30
2013,07,20,00,47,19.20
2013,07,20,00,48,19.20
2013,07,20,00,49,19.10
2013,07,20,00,50,19.10
2013,07,20,00,51,19.10
2013,07,20,00,52,19.00
2013,07,20,00,53,19.00
2013,07,20,00,54,18.90
2013,07,20,00,55,18.90
2013,07,20,00,56,18.90
2013,07,20,00,57,18.80
2013,07,20,00,58,18.80
2013,07,20,00,59,18.80
2013,07,20,01,00,18.80
2013,07,20,01,01,18.70
2013,07,20,01,02,18.70
2013,07,20,01,03,18.70
2013,07,20,01,04,18.60
2013,07,20,01,05,18.60
2013,07,20,01,06,18.60
2013,07,20,01,07,18.50
2013,07,20,01,08,18.50
2013,07,20,01,09,18.50
2013,07,20,01,10,18.50
2013,07,20,01,11,18.40
2013,07,20,01,12,18.40
2013,07,20,01,13,18.40
2013,07,20,01,14,18.40
2013,07,20,01,15,18.40
2013,07,20,01,16,18.40
2013,07,20,01,17,18.40
2013,07,20,01,18,18.40
2013,07,20,01,19,18.40
2013,07,20,01,20,18.40
2013,07,20,01,21,18.40
2013,07,20,01,22,18.50
2013,07,20,01,23,18.50
2013,07,20,01,24,18.50
2013,07,20,01,25,18.50
2013,07,20,01,26,18.50
2013,07,20,01,27,18.50
2013,07,20,01,28,18.50
2013,07,20,01,29,18.50
2013,07,20,01,30,18.40
2013,07,20,01,31,18.40
2013,07,20,01,32,18.40
2013,07,20,01,33,18.40
2013,07,20,01,34,18.40
2013,07,20,01,35,18.40
2013,07,20,01,36,18.40
2013,07,20,01,37,18.40
2013,07,20,01,38,18.40
2013,07,20,01,39,18.30
2013,07,20,01,40,18.30
2013,07,20,01,41,18.30
2013,07,20,01,42,18.30
2013,07,20,01,43,18.30
2013,07,20,01,44,18.20
2013,07,20,01,45,18.20
2013,07,20,01,46,18.20
2013,07,20,01,47,18.20
2013,07,20,01,48,18.10
2013,07,20,01,49,18.10
2013,07,20,01,50,18.10
2013,07,20,01,51,18.10
2013,07,20,01,52,18.00
2013,07,20,01,53,18.00
2013,07,20,01,54,18.00
2013,07,20,01,55,17.90
2013,07,20,01,56,17.90
2013,07,20,01,57,17.90
2013,07,20,01,58,17.90
2013,07,20,01,59,17.90
2013,07,20,02,00,17.80
2013,07,20,02,01,17.80
2013,07,20,02,02,17.80
2013,07,20,02,03,17.70
2013,07,20,02,04,17.70
2013,07,20,02,05,17.70
2013,07,20,02,06,17.70
2013,07,20,02,07,17.60
2013,07,20,02,08,17.60
2013,07,20,02,09,17.60
2013,07,20,02,10,17.50
2013,07,20,02,11,17.50
2013,07,20,02,12,17.50
2013,07,20,02,13,17.40
2013,07,20,02,14,17.40
2013,07,20,02,15,17.40
2013,07,20,02,16,17.40
2013,07,20,02,17,17.30
2013,07,20,02,18,17.30
2013,07,20,02,19,17.30
2013,07,20,02,20,17.30
2013,07,20,02,21,17.30
2013,07,20,02,22,17.20
2013,07,20,02,23,17.20
2013,07,20,02,24,17.20
2013,07,20,02,25,17.20
2013,07,20,02,26,17.20
2013,07,20,02,27,17.20
2013,07,20,02,28,17.10
2013,07,20,02,29,17.10
2013,07,20,02,30,17.10
2013,07,20,02,31,17.10
2013,07,20,02,32,17.10
2013,07,20,02,33,17.10
2013,07,20,02,34,17.10
2013,07,20,02,35,17.00
2013,07,20,02,36,17.00
2013,07,20,02,37,17.00
2013,07,20,02,38,17.00
2013,07,20,02,39,16.90
2013,07,20,02,40,16.90
2013,07,20,02,41,16.90
2013,07,20,02,42,16.90
2013,07,20,02,43,16.90
2013,07,20,02,44,16.90
2013,07,20,02,45,16.80
2013,07,20,02,46,16.80
2013,07,20,02,47,16.80
2013,07,20,02,48,16.90
2013,07,20,02,49,16.80
2013,07,20,02,50,16.80
2013,07,20,02,51,16.80
2013,07,20,02,52,16.80
2013,07,20,02,53,16.80
2013,07,20,02,54,16.80
2013,07,20,02,55,16.80
2013,07,20,02,56,16.70
2013,07,20,02,57,16.70
2013,07,20,02,58,16.70
2013,07,20,02,59,16.70
2013,07,20,03,00,16.60
2013,07,20,03,01,16.60
2013,07,20,03,02,16.60
2013,07,20,03,03,16.60
2013,07,20,03,04,16.60
2013,07,20,03,05,16.50
2013,07,20,03,06,16.50
2013,07,20,03,07,16.50
2013,07,20,03,08,16.40
2013,07,20,03,09,16.40
2013,07,20,03,10,16.40
2013,07,20,03,11,16.40
2013,07,20,03,12,16.40
2013,07,20,03,13,16.30
2013,07,20,03,14,16.30
2013,07,20,03,15,16.30
2013,07,20,03,16,16.30
2013,07,20,03,17,16.30
2013,07,20,03,18,16.30
2013,07,20,03,19,16.30
2013,07,20,03,20,16.30
2013,07,20,03,21,16.30
2013,07,20,03,22,16.30
2013,07,20,03,23,16.30
2013,07,20,03,24,16.30
2013,07,20,03,25,16.20
2013,07,20,03,26,16.20
2013,07,20,03,27,16.20
2013,07,20,03,28,16.20
2013,07,20,03,29,16.20
2013,07,20,03,30,16.20
2013,07,20,03,31,16.20
2013,07,20,03,32,16.20
2013,07,20,03,33,16.20
2013,07,20,03,34,16.20
2013,07,20,03,35,16.20
2013,07,20,03,36,16.10
2013,07,20,03,37,16.10
2013,07,20,03,38,16.10
2013,07,20,03,39,16.10
2013,07,20,03,40,16.10
2013,07,20,03,41,16.00
2013,07,20,03,42,16.00
2013,07,20,03,43,16.00
2013,07,20,03,44,15.90
2013,07,20,03,45,15.90
2013,07,20,03,46,15.90
2013,07,20,03,47,15.90
2013,07,20,03,48,15.80
2013,07,20,03,49,15.80
2013,07,20,03,50,15.80
2013,07,20,03,51,15.80
2013,07,20,03,52,15.80
2013,07,20,03,53,15.70
2013,07,20,03,54,15.70
2013,07,20,03,55,15.70
2013,07,20,03,56,15.70
2013,07,20,03,57,15.70
2013,07,20,03,58,15.60
2013,07,20,03,59,15.60
2013,07,20,04,00,15.60
2013,07,20,04,01,15.60
2013,07,20,04,02,15.50
2013,07,20,04,03,15.50
2013,07,20,04,04,15.50
2013,07,20,04,05,15.50
2013,07,20,04,06,15.50
2013,07,20,04,07,15.40
2013,07,20,04,08,15.40
2013,07,20,04,09,15.40
2013,07,20,04,10,15.40
2013,07,20,04,11,15.40
2013,07,20,04,12,15.40
2013,07,20,04,13,15.40
2013,07,20,04,14,15.40
2013,07,20,04,15,15.40
2013,07,20,04,16,15.40
2013,07,20,04,17,15.40
2013,07,20,04,18,15.30
2013,07,20,04,19,15.30
2013,07,20,04,20,15.30
2013,07,20,04,21,15.30
2013,07,20,04,22,15.30
2013,07,20,04,23,15.30
2013,07,20,04,24,15.30
2013,07,20,04,25,15.30
2013,07,20,04,26,15.30
2013,07,20,04,27,15.30
2013,07,20,04,28,15.30
2013,07,20,04,29,15.30
2013,07,20,04,30,15.20
2013,07,20,04,31,15.20
2013,07,20,04,32,15.20
2013,07,20,04,33,15.20
2013,07,20,04,34,15.20
2013,07,20,04,35,15.20
2013,07,20,04,36,15.20
2013,07,20,04,37,15.20
2013,07,20,04,38,15.20
2013,07,20,04,39,15.10
2013,07,20,04,40,15.10
2013,07,20,04,41,15.10
2013,07,20,04,42,15.10
2013,07,20,04,43,15.10
2013,07,20,04,44,15.10
2013,07,20,04,45,15.00
2013,07,20,04,46,15.00
2013,07,20,04,47,15.00
2013,07,20,04,48,15.00
2013,07,20,04,49,15.00
2013,07,20,04,50,14.90
2013,07,20,04,51,14.90
2013,07,20,04,52,14.90
2013,07,20,04,53,14.90
2013,07,20,04,54,14.90
2013,07,20,04,55,14.90
2013,07,20,04,56,14.80
2013,07,20,04,57,14.80
2013,07,20,04,58,14.80
2013,07,20,04,59,14.80
2013,07,20,05,00,14.80
2013,07,20,05,01,14.80
2013,07,20,05,02,14.80
2013,07,20,05,03,14.80
2013,07,20,05,04,14.70
2013,07,20,05,05,14.70
2013,07,20,05,06,14.70
2013,07,20,05,07,14.70
2013,07,20,05,08,14.70
2013,07,20,05,09,14.70
2013,07,20,05,10,14.70
2013,07,20,05,11,14.70
2013,07,20,05,12,14.70
2013,07,20,05,13,14.60
2013,07,20,05,14,14.70
2013,07,20,05,15,14.60
2013,07,20,05,16,14.60
2013,07,20,05,17,14.60
2013,07,20,05,18,14.60
2013,07,20,05,19,14.60
2013,07,20,05,20,14.60
2013,07,20,05,21,14.50
2013,07,20,05,22,14.50
2013,07,20,05,23,14.50
2013,07,20,05,24,14.40
2013,07,20,05,25,14.40
2013,07,20,05,26,14.40
2013,07,20,05,27,14.40
2013,07,20,05,28,14.30
2013,07,20,05,29,14.30
2013,07,20,05,30,14.30
2013,07,20,05,31,14.30
2013,07,20,05,32,14.20
2013,07,20,05,33,14.20
2013,07,20,05,34,14.20
2013,07,20,05,35,14.20
2013,07,20,05,36,14.10
2013,07,20,05,37,14.10
2013,07,20,05,38,14.10
2013,07,20,05,39,14.10
2013,07,20,05,40,14.10
2013,07,20,05,41,14.10
2013,07,20,05,42,14.10
2013,07,20,05,43,14.10
2013,07,20,05,44,14.10
2013,07,20,05,45,14.10
2013,07,20,05,46,14.10
2013,07,20,05,47,14.10
2013,07,20,05,48,14.10
2013,07,20,05,49,14.10
2013,07,20,05,50,14.10
2013,07,20,05,51,14.10
2013,07,20,05,52,14.10
2013,07,20,05,53,14.10
2013,07,20,05,54,14.10
2013,07,20,05,55,14.10
2013,07,20,05,56,14.10
2013,07,20,05,57,14.10
2013,07,20,05,58,14.10
2013,07,20,05,59,14.10
2013,07,20,06,00,14.10
2013,07,20,06,01,14.10
2013,07,20,06,02,14.10
2013,07,20,06,03,14.10
2013,07,20,06,04,14.10
2013,07,20,06,05,14.10
2013,07,20,06,06,14.10
2013,07,20,06,07,14.10
2013,07,20,06,08,14.10
2013,07,20,06,09,14.20
2013,07,20,06,10,14.20
2013,07,20,06,11,14.20
2013,07,20,06,12,14.20
2013,07,20,06,13,14.20
2013,07,20,06,14,14.20
2013,07,20,06,15,14.30
2013,07,20,06,16,14.30
2013,07,20,06,17,14.30
2013,07,20,06,18,14.30
2013,07,20,06,19,14.40
2013,07,20,06,20,14.40
2013,07,20,06,21,14.40
2013,07,20,06,22,14.40
2013,07,20,06,23,14.40
2013,07,20,06,24,14.40
2013,07,20,06,25,14.40
2013,07,20,06,26,14.50
2013,07,20,06,27,14.50
2013,07,20,06,28,14.50
2013,07,20,06,29,14.60
2013,07,20,06,30,14.60
2013,07,20,06,31,14.60
2013,07,20,06,32,14.70
2013,07,20,06,33,14.70
2013,07,20,06,34,14.70
2013,07,20,06,35,14.70
2013,07,20,06,36,14.70
2013,07,20,06,37,14.70
2013,07,20,06,38,14.70
2013,07,20,06,39,14.70
2013,07,20,06,40,14.80
2013,07,20,06,41,14.80
2013,07,20,06,42,14.80
2013,07,20,06,43,14.80
2013,07,20,06,44,14.80
2013,07,20,06,45,14.80
2013,07,20,06,46,14.90
2013,07,20,06,47,14.90
2013,07,20,06,48,14.90
2013,07,20,06,49,14.90
2013,07,20,06,50,15.00
2013,07,20,06,51,15.00
2013,07,20,06,52,15.00
2013,07,20,06,53,15.00
2013,07,20,06,54,15.00
2013,07,20,06,55,15.00
2013,07,20,06,56,15.00
2013,07,20,06,57,15.00
2013,07,20,06,58,14.90
2013,07,20,06,59,14.90
2013,07,20,07,00,14.90
2013,07,20,07,01,14.90
2013,07,20,07,02,14.90
2013,07,20,07,03,14.90
2013,07,20,07,04,14.90
2013,07,20,07,05,14.90
2013,07,20,07,06,14.90
2013,07,20,07,07,14.90
2013,07,20,07,08,15.00
2013,07,20,07,09,15.00
2013,07,20,07,10,15.00
2013,07,20,07,11,15.00
2013,07,20,07,12,14.90
2013,07,20,07,13,14.90
2013,07,20,07,14,15.00
2013,07,20,07,15,15.00
2013,07,20,07,16,15.00
2013,07,20,07,17,15.10
2013,07,20,07,18,15.10
2013,07,20,07,19,15.20
2013,07,20,07,20,15.20
2013,07,20,07,21,15.20
2013,07,20,07,22,15.20
2013,07,20,07,23,15.20
2013,07,20,07,24,15.20
2013,07,20,07,25,15.30
2013,07,20,07,26,15.30
2013,07,20,07,27,15.20
2013,07,20,07,28,15.20
2013,07,20,07,29,15.20
2013,07,20,07,30,15.30
2013,07,20,07,31,15.30
2013,07,20,07,32,15.40
2013,07,20,07,33,15.40
2013,07,20,07,34,15.50
2013,07,20,07,35,15.60
2013,07,20,07,36,15.60
2013,07,20,07,37,15.70
2013,07,20,07,38,15.70
2013,07,20,07,39,15.80
2013,07,20,07,40,15.80
2013,07,20,07,41,15.80
2013,07,20,07,42,15.90
2013,07,20,07,43,15.90
2013,07,20,07,44,16.00
2013,07,20,07,45,16.00
2013,07,20,07,46,16.10
2013,07,20,07,47,16.10
2013,07,20,07,48,16.10
2013,07,20,07,49,16.10
2013,07,20,07,50,16.10
2013,07,20,07,51,16.10
2013,07,20,07,52,16.10
2013,07,20,07,53,16.10
2013,07,20,07,54,16.10
2013,07,20,07,55,16.20
2013,07,20,07,56,16.20
2013,07,20,07,57,16.20
2013,07,20,07,58,16.20
2013,07,20,07,59,16.30
2013,07,20,08,00,16.30
2013,07,20,08,01,16.30
2013,07,20,08,02,16.20
2013,07,20,08,03,16.20
2013,07,20,08,04,16.20
2013,07,20,08,05,16.30
2013,07,20,08,06,16.30
2013,07,20,08,07,16.30
2013,07,20,08,08,16.40
2013,07,20,08,09,16.40
2013,07,20,08,10,16.40
2013,07,20,08,11,16.40
2013,07,20,08,12,16.40
2013,07,20,08,13,16.50
2013,07,20,08,14,16.50
2013,07,20,08,15,16.60
2013,07,20,08,16,16.60
2013,07,20,08,17,16.60
2013,07,20,08,18,16.70
2013,07,20,08,19,16.70
2013,07,20,08,20,16.70
2013,07,20,08,21,16.70
2013,07,20,08,22,16.80
2013,07,20,08,23,16.80
2013,07,20,08,24,16.80
2013,07,20,08,25,16.80
2013,07,20,08,26,16.80
2013,07,20,08,27,16.90
2013,07,20,08,28,16.90
2013,07,20,08,29,17.00
2013,07,20,08,30,17.00
2013,07,20,08,31,17.00
2013,07,20,08,32,17.00
2013,07,20,08,33,17.10
2013,07,20,08,34,17.10
2013,07,20,08,35,17.10
2013,07,20,08,36,17.20
2013,07,20,08,37,17.20
2013,07,20,08,38,17.20
2013,07,20,08,39,17.20
2013,07,20,08,40,17.20
2013,07,20,08,41,17.20
2013,07,20,08,42,17.20
2013,07,20,08,43,17.20
2013,07,20,08,44,17.20
2013,07,20,08,45,17.20
2013,07,20,08,46,17.20
2013,07,20,08,47,17.20
2013,07,20,08,48,17.20
2013,07,20,08,49,17.20
2013,07,20,08,50,17.20
2013,07,20,08,51,17.20
2013,07,20,08,52,17.30
2013,07,20,08,53,17.30
2013,07,20,08,54,17.30
2013,07,20,08,55,17.30
2013,07,20,08,56,17.30
2013,07,20,08,57,17.30
2013,07,20,08,58,17.40
2013,07,20,08,59,17.40
2013,07,20,09,00,17.40
2013,07,20,09,01,17.40
2013,07,20,09,02,17.40
2013,07,20,09,03,17.50
2013,07,20,09,04,17.50
2013,07,20,09,05,17.60
2013,07,20,09,06,17.70
2013,07,20,09,07,17.80
2013,07,20,09,08,17.80
2013,07,20,09,09,17.80
2013,07,20,09,10,17.80
2013,07,20,09,11,17.90
2013,07,20,09,12,17.90
2013,07,20,09,13,17.90
2013,07,20,09,14,18.00
2013,07,20,09,15,18.00
2013,07,20,09,16,18.00
2013,07,20,09,17,18.00
2013,07,20,09,18,18.10
2013,07,20,09,19,18.10
2013,07,20,09,20,18.00
2013,07,20,09,21,18.00
2013,07,20,09,22,18.10
2013,07,20,09,23,18.10
2013,07,20,09,24,18.20
2013,07,20,09,25,18.20
2013,07,20,09,26,18.30
2013,07,20,09,27,18.30
2013,07,20,09,28,18.40
2013,07,20,09,29,18.50
2013,07,20,09,30,18.50
2013,07,20,09,31,18.50
2013,07,20,09,32,18.50
2013,07,20,09,33,18.50
2013,07,20,09,34,18.50
2013,07,20,09,35,18.50
2013,07,20,09,36,18.60
2013,07,20,09,37,18.60
2013,07,20,09,38,18.70
2013,07,20,09,39,18.80
2013,07,20,09,40,18.80
2013,07,20,09,41,18.90
2013,07,20,09,42,18.90
2013,07,20,09,43,19.00
2013,07,20,09,44,19.00
2013,07,20,09,45,19.00
2013,07,20,09,46,19.00
2013,07,20,09,47,19.10
2013,07,20,09,48,19.10
2013,07,20,09,49,19.20
2013,07,20,09,50,19.20
2013,07,20,09,51,19.30
2013,07,20,09,52,19.40
2013,07,20,09,53,19.40
2013,07,20,09,54,19.50
2013,07,20,09,55,19.60
2013,07,20,09,56,19.70
2013,07,20,09,57,19.70
2013,07,20,09,58,19.80
2013,07,20,09,59,19.80
2013,07,20,10,00,19.80
2013,07,20,10,01,19.80
2013,07,20,10,02,19.80
2013,07,20,10,03,19.80
2013,07,20,10,04,19.90
2013,07,20,10,05,19.90
2013,07,20,10,06,20.00
2013,07,20,10,07,20.00
2013,07,20,10,08,20.10
2013,07,20,10,09,20.20
2013,07,20,10,10,20.20
2013,07,20,10,11,20.20
2013,07,20,10,12,20.10
2013,07,20,10,13,20.20
2013,07,20,10,14,20.20
2013,07,20,10,15,20.20
2013,07,20,10,16,20.30
2013,07,20,10,17,20.30
2013,07,20,10,18,20.40
2013,07,20,10,19,20.40
2013,07,20,10,20,20.50
2013,07,20,10,21,20.50
2013,07,20,10,22,20.50
2013,07,20,10,23,20.50
2013,07,20,10,24,20.50
2013,07,20,10,25,20.50
2013,07,20,10,26,20.50
2013,07,20,10,27,20.60
2013,07,20,10,28,20.60
2013,07,20,10,29,20.70
2013,07,20,10,30,20.70
2013,07,20,10,31,20.80
2013,07,20,10,32,20.80
2013,07,20,10,33,20.80
2013,07,20,10,34,20.80
2013,07,20,10,35,20.80
2013,07,20,10,36,20.80
2013,07,20,10,37,20.80
2013,07,20,10,38,20.80
2013,07,20,10,39,20.70
2013,07,20,10,40,20.70
2013,07,20,10,41,20.70
2013,07,20,10,42,20.60
2013,07,20,10,43,20.60
2013,07,20,10,44,20.60
2013,07,20,10,45,20.60
2013,07,20,10,46,20.70
2013,07,20,10,47,20.70
2013,07,20,10,48,20.70
2013,07,20,10,49,20.70
2013,07,20,10,50,20.60
2013,07,20,10,51,20.70
2013,07,20,10,52,20.70
2013,07,20,10,53,20.80
2013,07,20,10,54,20.80
2013,07,20,10,55,20.80
2013,07,20,10,56,20.90
2013,07,20,10,57,20.90
2013,07,20,10,58,21.00
2013,07,20,10,59,21.00
2013,07,20,11,00,20.90
2013,07,20,11,01,20.90
2013,07,20,11,02,20.80
2013,07,20,11,03,20.80
2013,07,20,11,04,20.70
2013,07,20,11,05,20.70
2013,07,20,11,06,20.80
2013,07,20,11,07,20.80
2013,07,20,11,08,20.90
2013,07,20,11,09,20.90
2013,07,20,11,10,21.00
2013,07,20,11,11,21.00
2013,07,20,11,12,21.10
2013,07,20,11,13,21.10
2013,07,20,11,14,21.10
2013,07,20,11,15,21.10
2013,07,20,11,16,21.10
2013,07,20,11,17,21.10
2013,07,20,11,18,21.10
2013,07,20,11,19,21.10
2013,07,20,11,20,21.10
2013,07,20,11,21,21.10
2013,07,20,11,22,21.20
2013,07,20,11,23,21.20
2013,07,20,11,24,21.30
2013,07,20,11,25,21.30
2013,07,20,11,26,21.30
2013,07,20,11,27,21.30
2013,07,20,11,28,21.30
2013,07,20,11,29,21.20
2013,07,20,11,30,21.20
2013,07,20,11,31,21.20
2013,07,20,11,32,21.20
2013,07,20,11,33,21.20
2013,07,20,11,34,21.10
2013,07,20,11,35,21.10
2013,07,20,11,36,21.00
2013,07,20,11,37,21.00
2013,07,20,11,38,21.10
2013,07,20,11,39,21.10
2013,07,20,11,40,21.10
2013,07,20,11,41,21.20
2013,07,20,11,42,21.20
2013,07,20,11,43,21.30
2013,07,20,11,44,21.30
2013,07,20,11,45,21.40
2013,07,20,11,46,21.50
2013,07,20,11,47,21.60
2013,07,20,11,48,21.70
2013,07,20,11,49,21.80
2013,07,20,11,50,21.80
2013,07,20,11,51,21.80
2013,07,20,11,52,21.80
2013,07,20,11,53,21.70
2013,07,20,11,54,21.60
2013,07,20,11,55,21.60
2013,07,20,11,56,21.60
2013,07,20,11,57,21.70
2013,07,20,11,58,21.80
2013,07,20,11,59,21.80
2013,07,20,12,00,21.80
2013,07,20,12,01,21.80
2013,07,20,12,02,21.70
2013,07,20,12,03,21.60
2013,07,20,12,04,21.60
2013,07,20,12,05,21.60
2013,07,20,12,06,21.60
2013,07,20,12,07,21.60
2013,07,20,12,08,21.60
2013,07,20,12,09,21.70
2013,07,20,12,10,21.80
2013,07,20,12,11,21.90
2013,07,20,12,12,22.00
2013,07,20,12,13,22.10
2013,07,20,12,14,22.00
2013,07,20,12,15,21.90
2013,07,20,12,16,21.80
2013,07,20,12,17,21.80
2013,07,20,12,18,21.80
2013,07,20,12,19,21.80
2013,07,20,12,20,21.80
2013,07,20,12,21,21.80
2013,07,20,12,22,21.90
2013,07,20,12,23,21.90
2013,07,20,12,24,21.90
2013,07,20,12,25,21.90
2013,07,20,12,26,21.90
2013,07,20,12,27,21.90
2013,07,20,12,28,21.90
2013,07,20,12,29,21.80
2013,07,20,12,30,21.80
2013,07,20,12,31,21.70
2013,07,20,12,32,21.60
2013,07,20,12,33,21.60
2013,07,20,12,34,21.60
2013,07,20,12,35,21.60
2013,07,20,12,36,21.60
2013,07,20,12,37,21.60
2013,07,20,12,38,21.60
2013,07,20,12,39,21.50
2013,07,20,12,40,21.50
2013,07,20,12,41,21.50
2013,07,20,12,42,21.60
2013,07,20,12,43,21.60
2013,07,20,12,44,21.60
2013,07,20,12,45,21.70
2013,07,20,12,46,21.80
2013,07,20,12,47,21.90
2013,07,20,12,48,22.00
2013,07,20,12,49,22.10
2013,07,20,12,50,22.20
2013,07,20,12,51,22.20
2013,07,20,12,52,22.20
2013,07,20,12,53,22.20
2013,07,20,12,54,22.10
2013,07,20,12,55,22.00
2013,07,20,12,56,22.00
2013,07,20,12,57,21.90
2013,07,20,12,58,21.80
2013,07,20,12,59,21.80
2013,07,20,13,00,21.80
2013,07,20,13,01,21.90
2013,07,20,13,02,21.90
2013,07,20,13,03,21.90
2013,07,20,13,04,22.00
2013,07,20,13,05,22.10
2013,07,20,13,06,22.10
2013,07,20,13,07,22.10
2013,07,20,13,08,22.10
2013,07,20,13,09,22.10
2013,07,20,13,10,22.10
2013,07,20,13,11,22.10
2013,07,20,13,12,22.00
2013,07,20,13,13,21.90
2013,07,20,13,14,21.90
2013,07,20,13,15,21.90
2013,07,20,13,16,21.90
2013,07,20,13,17,21.80
2013,07,20,13,18,21.90
2013,07,20,13,19,22.00
2013,07,20,13,20,21.90
2013,07,20,13,21,21.80
2013,07,20,13,22,21.80
2013,07,20,13,23,21.80
2013,07,20,13,24,21.90
2013,07,20,13,25,22.00
2013,07,20,13,26,22.10
2013,07,20,13,27,22.20
2013,07,20,13,28,22.30
2013,07,20,13,29,22.30
2013,07,20,13,30,22.50
2013,07,20,13,31,22.70
2013,07,20,13,32,22.80
2013,07,20,13,33,22.90
2013,07,20,13,34,22.90
2013,07,20,13,35,23.00
2013,07,20,13,36,23.00
2013,07,20,13,37,23.10
2013,07,20,13,38,23.20
2013,07,20,13,39,23.20
2013,07,20,13,40,23.20
2013,07,20,13,41,23.20
2013,07,20,13,42,23.30
2013,07,20,13,43,23.30
2013,07,20,13,44,23.40
2013,07,20,13,45,23.50
2013,07,20,13,46,23.60
2013,07,20,13,47,23.60
2013,07,20,13,48,23.70
2013,07,20,13,49,23.70
2013,07,20,13,50,23.70
2013,07,20,13,51,23.80
2013,07,20,13,52,23.80
2013,07,20,13,53,23.80
2013,07,20,13,54,23.80
2013,07,20,13,55,23.80
2013,07,20,13,56,23.70
2013,07,20,13,57,23.70
2013,07,20,13,58,23.70
2013,07,20,13,59,23.60
2013,07,20,14,00,23.60
2013,07,20,14,01,23.60
2013,07,20,14,02,23.70
2013,07,20,14,03,23.80
2013,07,20,14,04,23.90
2013,07,20,14,05,24.00
2013,07,20,14,06,24.00
2013,07,20,14,07,23.90
2013,07,20,14,08,23.80
2013,07,20,14,09,23.90
2013,07,20,14,10,23.90
2013,07,20,14,11,24.00
2013,07,20,14,12,24.10
2013,07,20,14,13,24.10
2013,07,20,14,14,24.00
2013,07,20,14,15,23.90
2013,07,20,14,16,23.70
2013,07,20,14,17,23.50
2013,07,20,14,18,23.30
2013,07,20,14,19,23.30
2013,07,20,14,20,23.40
2013,07,20,14,21,23.50
2013,07,20,14,22,23.60
2013,07,20,14,23,23.70
2013,07,20,14,24,23.90
2013,07,20,14,25,24.00
2013,07,20,14,26,24.10
2013,07,20,14,27,24.20
2013,07,20,14,28,24.30
2013,07,20,14,29,24.40
2013,07,20,14,30,24.50
2013,07,20,14,31,24.50
2013,07,20,14,32,24.50
2013,07,20,14,33,24.60
2013,07,20,14,34,24.70
2013,07,20,14,35,24.70
2013,07,20,14,36,24.80
2013,07,20,14,37,24.90
2013,07,20,14,38,24.90
2013,07,20,14,39,24.90
2013,07,20,14,40,25.00
2013,07,20,14,41,24.90
2013,07,20,14,42,24.90
2013,07,20,14,43,24.90
2013,07,20,14,44,24.90
2013,07,20,14,45,24.80
2013,07,20,14,46,24.80
2013,07,20,14,47,24.90
2013,07,20,14,48,25.00
2013,07,20,14,49,25.00
2013,07,20,14,50,25.00
2013,07,20,14,51,25.00
2013,07,20,14,52,24.90
2013,07,20,14,53,24.80
2013,07,20,14,54,24.80
2013,07,20,14,55,24.80
2013,07,20,14,56,24.80
2013,07,20,14,57,24.90
2013,07,20,14,58,25.00
2013,07,20,14,59,25.00
2013,07,20,15,00,25.10
2013,07,20,15,01,25.20
2013,07,20,15,02,25.30
2013,07,20,15,03,25.30
2013,07,20,15,04,25.20
2013,07,20,15,05,25.30
2013,07,20,15,06,25.20
2013,07,20,15,07,25.20
2013,07,20,15,08,25.10
2013,07,20,15,09,25.10
2013,07,20,15,10,25.10
2013,07,20,15,11,25.20
2013,07,20,15,12,25.30
2013,07,20,15,13,25.30
2013,07,20,15,14,25.20
2013,07,20,15,15,25.00
2013,07,20,15,16,24.90
2013,07,20,15,17,24.80
2013,07,20,15,18,24.70
2013,07,20,15,19,24.70
2013,07,20,15,20,24.70
2013,07,20,15,21,24.70
2013,07,20,15,22,24.70
2013,07,20,15,23,24.60
2013,07,20,15,24,24.60
2013,07,20,15,25,24.60
2013,07,20,15,26,24.70
2013,07,20,15,27,24.70
2013,07,20,15,28,24.70
2013,07,20,15,29,24.70
2013,07,20,15,30,24.60
2013,07,20,15,31,24.50
2013,07,20,15,32,24.30
2013,07,20,15,33,24.20
2013,07,20,15,34,24.10
2013,07,20,15,35,24.00
2013,07,20,15,36,24.00
2013,07,20,15,37,23.90
2013,07,20,15,38,23.80
2013,07,20,15,39,23.80
2013,07,20,15,40,23.80
2013,07,20,15,41,23.70
2013,07,20,15,42,23.70
2013,07,20,15,43,23.70
2013,07,20,15,44,23.60
2013,07,20,15,45,23.60
2013,07,20,15,46,23.40
2013,07,20,15,47,23.30
2013,07,20,15,48,23.10
2013,07,20,15,49,23.00
2013,07,20,15,50,22.90
2013,07,20,15,51,22.80
2013,07,20,15,52,22.70
2013,07,20,15,53,22.60
2013,07,20,15,54,22.60
2013,07,20,15,55,22.50
2013,07,20,15,56,22.50
2013,07,20,15,57,22.40
2013,07,20,15,58,22.50
2013,07,20,15,59,22.60
2013,07,20,16,00,22.60
2013,07,20,16,01,22.60
2013,07,20,16,02,22.70
2013,07,20,16,03,22.80
2013,07,20,16,04,23.00
2013,07,20,16,05,23.10
2013,07,20,16,06,23.30
2013,07,20,16,07,23.30
2013,07,20,16,08,23.30
2013,07,20,16,09,23.20
2013,07,20,16,10,23.10
2013,07,20,16,11,23.10
2013,07,20,16,12,23.20
2013,07,20,16,13,23.20
2013,07,20,16,14,23.40
2013,07,20,16,15,23.50
2013,07,20,16,16,23.60
2013,07,20,16,17,23.60
2013,07,20,16,18,23.50
2013,07,20,16,19,23.50
2013,07,20,16,20,23.50
2013,07,20,16,21,23.50
2013,07,20,16,22,23.50
2013,07,20,16,23,23.50
2013,07,20,16,24,23.60
2013,07,20,16,25,23.70
2013,07,20,16,26,23.70
2013,07,20,16,27,23.80
2013,07,20,16,28,23.70
2013,07,20,16,29,23.60
2013,07,20,16,30,23.60
2013,07,20,16,31,23.50
2013,07,20,16,32,23.40
2013,07,20,16,33,23.50
2013,07,20,16,34,23.50
2013,07,20,16,35,23.70
2013,07,20,16,36,23.90
2013,07,20,16,37,24.10
2013,07,20,16,38,24.40
2013,07,20,16,39,24.60
2013,07,20,16,40,24.70
2013,07,20,16,41,24.90
2013,07,20,16,42,24.90
2013,07,20,16,43,25.00
2013,07,20,16,44,25.00
2013,07,20,16,45,25.10
2013,07,20,16,46,25.20
2013,07,20,16,47,25.20
2013,07,20,16,48,25.20
2013,07,20,16,49,25.20
2013,07,20,16,50,25.10
2013,07,20,16,51,25.10
2013,07,20,16,52,25.10
2013,07,20,16,53,25.00
2013,07,20,16,54,25.00
2013,07,20,16,55,25.00
2013,07,20,16,56,24.90
2013,07,20,16,57,24.90
2013,07,20,16,58,24.90
2013,07,20,16,59,24.90
2013,07,20,17,00,24.80
2013,07,20,17,01,24.60
2013,07,20,17,02,24.40
2013,07,20,17,03,24.20
2013,07,20,17,04,24.10
2013,07,20,17,05,24.10
2013,07,20,17,06,24.00
2013,07,20,17,07,24.00
2013,07,20,17,08,24.00
2013,07,20,17,09,23.90
2013,07,20,17,10,23.90
2013,07,20,17,11,24.00
2013,07,20,17,12,24.00
2013,07,20,17,13,24.00
2013,07,20,17,14,24.00
2013,07,20,17,15,23.90
2013,07,20,17,16,23.90
2013,07,20,17,17,24.00
2013,07,20,17,18,24.10
2013,07,20,17,19,24.20